   US/Pennsylvania.  Observer J. Maikner. 0.30-m f/3.8 Riccardi-Honders + CCD.

Orbital elements:  8MKK002
   Perihelion 2026 Mar 30.410706 +/- 0.0234 TT =  9:51:24.9 (JD 2461129.910706)
Epoch 2026 Jan 13.0 TT = JDT 2461053.5   Earth MOID: 0.0103   Ve: 0.0482
M 281.435956018 +/- 0.041           (J2000 ecliptic)             AutoNEOCP
n   1.028181109 +/- 0.000234        Peri.  291.920913 +/- 0.018
a   0.972201534 +/- 0.000147        Node   292.012016 +/- 0.0008
e   0.29860342 +/- 0.000175         Incl.   24.094817 +/- 0.017
P   0.959/350.126d         H 25.12  G  0.15   U  7.1
q 0.681898825 +/- 6.7e-5    Q 1.262504244 +/- 0.000361
73 of 79 observations 2026 Jan. 10-13; mean residual 0".50
Residuals in arcseconds: 
260110 K19  .54+  .16-    260111 587  .40-  .01-    260112 H21  .15-  .09-    
260110 K19  .01-  1.0-    260111 033  .40-  .04+    260112 900  .13+  .02-    
260110 K19( 1.6+  1.4-)   260111 033  .44-  .10+    260112 900  .24+  .17-    
260110 J95( .49-  .78+)   260111 033  .17-  .36+    260112 900  .06-  .12+    
260110 J95( 1.1-  .56+)   260111 033  .59-  .24+    260112 P13  .16+  .29-    
260110 J95  .18-  .03-    260111 587  .19-  .01-    260112 P13  .04+  .11-    
260110 L01  .47+  .29+    260111 587  .42-  .02+    260112 P13  .18-  .24-    
260110 L01  .63+  .75+    260111 K19  .09+  .48+    260112 P13  .04-  .61-    
260110 L01  .58+  .55+    260111 K19  .33-  .13+    260112 P13  .02+  .59-    
260111 B15  .32-  .21-    260111 K19  1.7+  .26+    260112 C82  .26-  .42+    
260111 B15  .32+  .22+    260111 106  .33-  .26-    260112 C82  .54-  .71-    
260111 B15  .18-  .17+    260111 G19  .25-  1.2-    260112 C82  1.2-  1.7-    
260111 H36  .09-  .09-    260111 106  .44-  .15-    260112 958  .05+  .18-    
260111 H36  .35+  .39+    260111 595  .52+  .06-    260112 958  .58-  .49+    
260111 104  .24+  .33+    260111 106  .54-  .35-    260112 958  .55+  1.2+    
260111 104  .68-  .38-    260111 595  .08+  .01+    260112 W62  .10+  .06+    
260111 734( .78-  2.7-)   260111 595  .12-  .63+    260112 W62  .24+  .19+    
260111 734( .69-  2.4-)   260111 106  .16+  .10-    260112 W62  .23-  .13-    
260111 734  .40-  1.5-    260111 203  .00   .07+    260112 W62  .26+  .18-    
260111 N56  .10+  .35+    260111 R93  .29+  .02+    260113 H21  .08+  .02+    
260111 N56  .27-  .12+    260111 G19  .92-  1.0-    260113 H21  .07-  .03+    
260111 M35  .87+  .71+    260111 R93  .24-  .39+    260113 H21  .33+  .03+    
260111 M35  .67+  .04-    260111 203  .44+  .14+    260113 U52  .20+  .32+    
260111 126  .98+  .24+    260111 M50  .53-  .02-    260113 U52  .31+  .42+    
260111 M35( 1.7+  .20-)   260111 M50  .36-  .22-    260113 U52  .23+  .22+    
260111 126  .77+  1.0+    260112 H21  .10-  .01+    
260111 126  1.7+  1.0+    260112 H21  .27-  .06-    

Ephemerides (geocentric):
Date (UTC) HH   RA             Dec           delta  r     elong  mag " sig PA
---- --------  ------------   ------------  ------ ------ -----  --- --------
2026 01 13 07  03 46 55.472   +27 26 14.82  .02503 0.9990 127.5 19.0 .109 160
2026 01 13 08  03 45 17.160   +26 43 13.45  .02496 0.9988 127.0 19.0 .115 162
2026 01 13 09  03 43 39.572   +25 59 53.99  .02489 0.9986 126.5 19.0 .122 164
2026 01 13 10  03 42 02.711   +25 16 17.51  .02483 0.9984 126.0 19.0 .130 166
2026 01 13 11  03 40 26.577   +24 32 25.09  .02478 0.9982 125.5 19.0 .138 167
2026 01 13 12  03 38 51.171   +23 48 17.86  .02473 0.9980 124.9 19.0 .146 169
2026 01 13 13  03 37 16.496   +23 03 56.96  .02468 0.9977 124.4 19.1 .154 170
2026 01 13 14  03 35 42.551   +22 19 23.56  .02464 0.9975 123.9 19.1 .163 171
2026 01 13 15  03 34 09.336   +21 34 38.88  .02461 0.9973 123.3 19.1 .172 173
2026 01 13 16  03 32 36.851   +20 49 44.12  .02458 0.9971 122.8 19.1 .181 174
2026 01 13 17  03 31 05.097   +20 04 40.55  .02456 0.9969 122.2 19.1 .190 175
2026 01 13 18  03 29 34.073   +19 19 29.41  .02454 0.9967 121.6 19.1 .200 176
2026 01 13 19  03 28 03.777   +18 34 11.98  .02453 0.9965 121.1 19.1 .210 177
2026 01 13 20  03 26 34.209   +17 48 49.54  .02452 0.9963 120.5 19.2 .220 178
2026 01 13 21  03 25 05.368   +17 03 23.38  .02452 0.9961 119.9 19.2 .230 178
2026 01 13 22  03 23 37.252   +16 17 54.80  .02452 0.9959 119.3 19.2 .240 179
2026 01 13 23  03 22 09.860   +15 32 25.07  .02452 0.9956 118.7 19.2 .251   0
2026 01 14 00  03 20 43.189   +14 46 55.51  .02454 0.9954 118.1 19.2 .261   0
2026 01 14 01  03 19 17.237   +14 01 27.38  .02456 0.9952 117.6 19.2 .272   1
2026 01 14 02  03 17 52.002   +13 16 01.96  .02458 0.9950 117.0 19.3 .283   1
2026 01 14 03  03 16 27.482   +12 30 40.52  .02461 0.9948 116.4 19.3 .294   2
2026 01 14 04  03 15 03.674   +11 45 24.30  .02464 0.9946 115.8 19.3 .305   3
2026 01 14 05  03 13 40.575   +11 00 14.53  .02468 0.9944 115.2 19.3 .316   3
2026 01 14 06  03 12 18.182   +10 15 12.41  .02472 0.9942 114.6 19.3 .327   3
2026 01 14 07  03 10 56.491   +09 30 19.12  .02477 0.9939 113.9 19.4 .338   4
2026 01 14 08  03 09 35.501   +08 45 35.82  .02482 0.9937 113.3 19.4 .349   4
2026 01 14 09  03 08 15.206   +08 01 03.63  .02488 0.9935 112.7 19.4 .360   5
2026 01 14 10  03 06 55.603   +07 16 43.65  .02495 0.9933 112.1 19.4 .372   5
2026 01 14 11  03 05 36.690   +06 32 36.93  .02502 0.9931 111.5 19.5 .382   5
2026 01 14 12  03 04 18.461   +05 48 44.51  .02509 0.9929 110.9 19.5 .393   6
2026 01 14 13  03 03 00.913   +05 05 07.36  .02517 0.9927 110.3 19.5 .404   6
2026 01 14 14  03 01 44.042   +04 21 46.44  .02525 0.9925 109.7 19.5 .415   6
2026 01 14 15  03 00 27.844   +03 38 42.66  .02534 0.9923 109.1 19.6 .426   7
2026 01 14 16  02 59 12.314   +02 55 56.89  .02543 0.9920 108.5 19.6 .436   7
2026 01 14 17  02 57 57.449   +02 13 29.94  .02553 0.9918 108.0 19.6 .447   7
2026 01 14 18  02 56 43.243   +01 31 22.61  .02563 0.9916 107.4 19.6 .457   7
2026 01 14 19  02 55 29.692   +00 49 35.64  .02574 0.9914 106.8 19.7 .467   8
2026 01 14 20  02 54 16.792   +00 08 09.72  .02585 0.9912 106.2 19.7 .477   8
2026 01 14 21  02 53 04.538   -00 32 54.49  .02596 0.9910 105.6 19.7 .487   8
2026 01 14 22  02 51 52.924   -01 13 36.39  .02608 0.9908 105.0 19.7 .497   8
2026 01 14 23  02 50 41.948   -01 53 55.39  .02621 0.9906 104.5 19.8 .506   8
2026 01 15 00  02 49 31.603   -02 33 50.99  .02634 0.9903 103.9 19.8 .516   9
2026 01 15 01  02 48 21.884   -03 13 22.70  .02647 0.9901 103.4 19.8 .525   9
2026 01 15 02  02 47 12.788   -03 52 30.07  .02661 .98991 102.8 19.9 .534   9
2026 01 15 03  02 46 04.308   -04 31 12.72  .02675 .98970 102.2 19.9 .542   9
2026 01 15 04  02 44 56.440   -05 09 30.27  .02689 .98949 101.7 19.9 .551   9
2026 01 15 05  02 43 49.180   -05 47 22.41  .02704 .98927 101.2 20.0 .559  10
2026 01 15 06  02 42 42.520   -06 24 48.87  .02719 .98906 100.6 20.0 .567  10